Theta_e
318 328 336 337 338 337 337 338 338 340 339 338 338 338 337 337 339 338 338 336 335 332 331 331 328 324 318 316 315 312 310 310 308 308 310 312 313 311 311 312 314 315 317
311 318 329 339 337 338 340 338 340 340 342 340 339 338 339 338 338 339 336 336 334 332 330 328 322 318 314 314 314 311 311 311 309 307 309 309 309 309 309 310 311 314 315
308 312 320 340 340 337 339 340 339 340 343 342 341 340 339 339 338 339 338 335 334 333 329 325 320 318 315 315 312 309 310 309 309 308 305 306 306 306 308 309 310 311 312
306 308 313 319 327 341 340 341 340 341 342 342 343 343 341 342 341 339 337 332 329 327 326 324 321 319 315 314 311 309 309 310 308 306 305 304 305 304 305 308 307 308 308
304 305 310 315 321 330 339 340 341 340 342 342 343 343 342 341 340 337 333 331 328 325 324 320 318 318 316 313 311 309 309 309 307 305 304 303 303 303 305 304 306 307 308
302 304 309 314 319 322 333 339 339 339 339 339 340 340 337 335 313 317 325 326 325 323 320 319 316 316 313 311 311 309 310 308 305 305 303 303 301 302 302 304 305 305 306
301 304 307 311 317 320 329 332 334 335 336 336 338 337 335 331 311 312 318 330 329 328 323 318 314 314 312 309 307 307 306 304 307 308 304 303 302 303 304 303 303 304 305
300 302 307 310 314 320 329 331 330 332 332 333 334 335 333 330 310 310 312 330 328 325 319 316 315 311 308 307 305 306 305 305 305 305 306 304 305 304 306 306 306 306 306
301 303 306 309 313 318 328 328 328 328 329 331 332 333 331 328 306 304 316 324 321 317 317 312 309 306 300 300 305 303 302 302 302 301 300 298 297 297 302 306 305 305 304
302 305 307 310 312 315 323 326 329 329 329 329 328 332 325 324 303 304 314 314 311 309 308 306 304 305 297 298 303 303 301 302 303 303 302 300 301 300 300 306 305 304 303
306 307 309 311 312 315 318 328 328 327 327 326 325 328 328 321 309 303 304 312 309 308 305 304 302 297 297 297 300 305 303 303 302 303 303 303 303 304 305 303 305 305 303
310 310 312 314 318 320 320 324 328 325 325 323 317 312 314 316 307 302 303 305 305 306 304 303 300 296 296 296 300 295 296 300 303 304 304 302 302 300 300 301 304 305 306
311 314 316 318 316 317 320 323 325 325 322 317 315 312 309 310 308 303 302 300 303 304 303 301 296 295 295 296 295 296 297 303 303 303 300 297 297 298 298 299 303 305 306
305 307 310 309 307 306 311 314 322 322 319 314 311 308 306 305 304 303 302 302 300 300 299 299 299 299 299 298 298 300 302 302 302 299 297 296 296 297 297 297 301 302 299
303 304 304 302 301 298 295 294 306 305 313 313 311 307 303 302 303 301 301 302 302 300 299 299 300 300 298 298 298 298 298 298 297 296 296 295 295 296 295 297 298 298 298
300 301 302 303 302 301 299 296 293 293 294 296 299 305 306 302 297 297 295 295 295 295 301 299 298 298 298 296 296 295 296 296 296 296 295 295 295 295 295 296 297 297 296
294 297 299 301 301 300 300 297 295 294 292 292 294 295 296 295 295 294 293 293 293 296 299 297 296 296 295 296 296 296 294 295 296 296 295 295 294 294 295 294 294 295 294
295 295 294 294 296 299 299 300 299 296 292 291 292 292 292 292 292 292 293 295 296 296 296 295 294 295 295 295 295 295 294 295 296 295 295 295 294 294 293 293 293 293 293
293 293 294 294 294 295 296 296 295 294 292 291 291 291 292 292 292 292 294 297 295 294 295 295 295 295 295 295 294 295 295 295 295 295 295 294 293 293 292 292 292 287 289
293 292 292 292 292 293 293 293 293 293 292 292 292 294 295 296 295 295 296 296 295 294 294 294 294 295 295 294 294 294 294 293 294 294 294 293 293 293 291 291 292 292 292
294 293 289 293 293 293 293 292 292 292 292 291 291 291 288 295 294 294 295 295 295 294 293 293 294 294 295 294 293 293 293 292 293 293 293 292 292 290 291 292 291 291 291
294 293 293 292 293 292 292 292 292 292 291 291 291 290 289 293 292 291 292 292 293 294 294 293 293 293 294 294 293 292 291 291 292 293 292 292 292 291 291 291 291 291 290
294 293 293 293 293 291 292 292 292 292 292 292 292 292 292 291 291 291 291 291 291 291 292 293 292 291 292 293 293 292 292 291 292 293 292 292 291 291 291 290 290 290 290
295 293 293 293 293 292 292 291 291 290 292 292 292 292 291 291 291 291 291 291 289 289 290 289 290 289 289 289 290 291 291 291 292 292 293 292 290 290 290 290 290 290 289
295 294 293 293 293 293 292 292 292 292 292 291 291 291 291 290 289 289 287 287 287 286 286 287 288 288 288 289 289 288 286 285 290 288 291 291 291 290 290 290 290 289 289
296 294 293 293 293 293 292 292 293 293 292 291 290 290 290 288 288 287 286 286 286 286 286 287 287 287 288 288 288 285 285 285 287 286 291 291 290 290 290 289 289 289 289
Wind_Speed
13 9 6 10 9 7 9 10 11 12 12 13 13 13 13 13 12 10 8 12 12 10 9 10 6 6 4 3 4 4 5 3 5 1 1 2 3 2 3 3 5 5 5
14 12 9 7 8 7 9 10 10 12 11 12 11 11 11 11 10 12 11 10 12 13 11 11 10 6 5 4 4 5 4 2 4 5 2 2 3 3 2 3 4 5 7
16 15 13 6 11 11 9 9 10 11 12 10 10 11 10 10 11 11 11 10 9 8 11 12 12 9 5 3 3 4 5 3 2 4 4 1 2 2 2 3 4 6 7
14 14 12 8 4 8 11 12 12 13 12 13 14 13 11 10 11 12 12 12 13 13 9 6 6 8 8 8 3 6 7 4 5 6 3 3 3 1 2 2 3 5 6
14 14 13 11 6 4 8 10 10 13 13 13 12 11 10 11 9 13 15 17 16 13 11 14 9 9 15 12 7 7 7 4 4 5 3 2 2 3 3 2 2 2 5
13 13 15 13 8 4 5 8 11 11 11 11 12 14 14 9 17 17 18 16 19 18 16 15 14 19 13 16 9 10 8 8 5 5 3 3 3 3 3 3 3 2 2
12 14 13 12 10 5 4 5 8 12 12 14 13 14 15 16 25 26 28 19 22 20 19 16 14 11 13 11 15 13 7 8 5 7 6 5 4 5 6 4 3 2 3
14 14 12 12 8 7 3 7 7 8 12 11 14 14 16 17 27 27 21 16 8 12 15 15 14 15 14 15 15 9 7 5 3 5 5 7 5 7 3 3 5 5 3
14 14 11 8 8 8 3 6 7 8 7 8 12 14 16 16 18 15 15 10 11 12 12 13 14 13 15 19 16 13 10 7 7 11 14 13 11 8 6 6 4 3 2
14 13 10 8 7 8 7 8 7 8 7 6 8 13 17 15 15 15 14 10 13 10 9 11 19 17 18 17 16 16 13 10 10 9 9 9 6 6 9 3 4 3 2
11 12 11 8 10 9 8 6 4 9 9 9 8 6 13 17 17 19 18 13 12 11 10 9 8 21 18 13 14 12 13 11 9 8 8 5 3 4 4 3 3 4 3
10 11 11 9 7 5 6 6 7 9 11 11 10 6 3 9 17 16 17 15 17 14 12 10 12 19 18 16 12 17 16 11 7 7 7 4 4 3 3 2 3 2 2
5 8 9 5 2 2 7 9 8 10 10 8 10 10 7 6 7 11 20 23 17 13 11 14 19 19 17 12 16 16 12 7 7 6 6 3 3 3 3 4 5 5 5
5 5 4 5 4 5 3 3 4 8 9 9 9 9 10 9 10 9 11 13 20 14 20 15 12 12 10 12 9 8 6 6 6 7 5 5 3 2 2 3 3 4 3
6 5 5 5 6 5 7 5 3 3 4 10 9 11 12 11 11 15 14 12 14 18 17 11 10 9 9 8 6 5 6 6 6 5 6 6 4 4 3 3 3 3 4
7 5 5 3 3 3 2 5 18 11 11 9 7 13 8 13 24 25 22 21 27 24 12 14 11 10 10 8 7 8 6 7 6 7 6 6 6 6 6 4 3 4 5
10 10 7 6 4 3 3 3 6 11 25 18 13 11 18 26 24 25 28 31 23 19 12 11 11 11 9 8 8 8 7 5 8 7 7 6 7 6 6 5 5 5 5
9 15 8 7 7 5 4 3 4 5 8 8 15 16 20 24 28 29 29 27 12 10 9 12 12 10 9 9 8 8 7 7 8 8 7 6 6 7 6 5 5 6 6
9 7 7 7 7 7 7 7 7 10 8 10 12 16 21 29 22 18 14 9 11 10 10 12 11 10 9 8 8 8 8 7 8 8 7 7 6 7 6 6 5 5 7
9 16 10 7 7 8 7 8 11 9 8 8 12 12 12 13 13 10 10 8 8 10 10 11 10 10 10 9 8 9 8 8 7 7 7 7 6 6 7 6 7 8 6
7 7 7 8 8 8 9 10 10 10 10 10 9 8 9 12 12 10 10 10 6 10 10 10 9 9 9 9 9 8 8 8 7 7 8 6 7 7 6 7 8 7 8
7 7 8 9 9 10 11 11 11 12 12 12 11 12 13 10 11 11 10 8 8 9 9 10 8 8 8 8 8 7 8 8 6 7 7 7 7 7 6 7 8 7 7
7 8 9 9 9 10 11 10 10 11 12 11 11 11 10 10 10 11 9 7 9 9 8 9 9 7 6 7 6 6 8 7 7 7 8 8 7 7 6 7 8 8 7
8 8 9 9 9 10 11 11 11 13 12 11 11 11 11 9 9 11 8 9 9 9 8 8 7 9 7 6 6 6 7 7 7 8 10 9 8 7 7 7 7 10 8
7 7 7 7 9 9 10 10 10 11 11 10 8 8 9 9 8 9 9 8 7 8 7 7 7 9 9 11 10 9 7 7 8 7 7 9 10 10 8 8 8 8 9
7 7 7 6 7 8 8 8 9 9 9 8 8 7 8 8 8 8 8 8 8 9 9 7 9 11 10 8 9 8 6 8 8 9 8 9 9 8 7 9 11 7 8
Wind_Direction
352 326 220 214 213 200 184 184 180 178 178 180 187 186 188 190 190 186 180 167 169 163 167 167 137 127 131 125 116 122 115 141 124 150 123 101 109 19 344 3 35 39 41
338 332 287 189 191 198 193 179 174 183 184 184 184 192 191 194 186 186 179 187 175 168 158 141 134 128 142 138 147 108 132 130 128 141 113 123 101 75 321 33 27 53 53
335 335 328 204 192 198 192 183 179 175 181 173 172 187 186 191 181 185 179 168 187 174 164 147 139 149 143 153 135 132 133 120 97 140 123 136 103 68 93 51 42 50 61
327 326 317 328 320 208 197 196 181 181 179 179 186 187 178 176 173 173 160 146 135 128 106 112 153 160 171 130 173 166 103 146 117 107 101 123 95 94 91 124 95 59 61
314 314 307 305 304 269 196 202 190 182 182 183 182 175 165 167 169 167 161 157 141 131 146 144 154 160 163 150 184 126 141 119 121 114 129 108 141 170 157 166 123 92 67
297 306 301 306 300 332 237 195 179 180 179 170 176 160 154 149 137 141 139 142 134 147 158 176 157 156 154 140 139 113 185 137 160 137 147 154 181 144 139 176 133 130 131
302 288 289 297 297 311 264 178 184 186 176 182 173 162 158 153 153 154 159 167 177 181 157 159 151 150 147 136 117 129 123 103 150 149 139 176 154 160 153 156 126 132 137
280 281 278 275 302 299 235 183 183 190 191 182 180 172 164 169 170 168 165 167 171 139 147 151 154 153 153 149 120 121 94 80 152 105 136 138 125 140 147 128 122 110 96
269 267 266 278 286 289 246 207 170 174 182 186 182 173 168 173 171 148 156 137 136 137 144 143 140 140 148 136 125 129 111 98 78 98 98 102 109 118 128 124 136 135 100
263 268 273 267 276 278 270 216 198 183 169 155 180 187 178 166 152 147 137 132 129 129 124 139 145 152 143 140 142 132 128 143 138 117 108 97 110 107 95 88 136 146 122
257 263 263 259 253 257 256 231 160 206 171 163 165 184 177 166 160 155 146 145 143 139 142 144 141 137 135 129 125 138 140 138 137 125 116 115 115 86 90 102 98 97 121
247 241 251 248 240 251 262 254 206 194 188 162 142 116 94 159 159 159 151 141 143 144 151 143 143 133 126 122 120 120 128 125 135 130 124 134 119 102 89 104 132 148 62
264 239 231 209 191 280 248 218 189 187 187 164 162 146 138 134 139 146 143 136 137 132 136 137 133 120 119 107 118 131 129 128 139 138 132 126 104 103 129 96 77 108 97
355 8 51 77 57 18 27 29 190 191 178 165 153 147 140 147 143 140 129 112 110 104 108 115 123 118 105 112 122 139 133 136 149 136 121 105 99 120 120 103 121 130 114
13 2 52 63 68 63 53 16 351 15 188 167 165 154 153 158 160 143 142 142 136 133 124 120 126 129 124 133 127 125 116 126 133 124 125 120 120 118 91 105 130 131 107
20 15 16 63 79 72 85 70 38 46 52 61 157 161 160 143 148 146 137 129 131 134 138 131 139 138 133 140 136 119 136 140 120 118 120 127 131 120 113 113 116 112 109
26 11 16 22 40 47 50 73 85 49 58 52 77 102 142 142 141 133 131 133 132 128 131 142 134 123 132 134 130 144 142 129 125 123 131 132 122 116 120 116 113 104 97
29 32 29 25 17 35 40 42 75 81 90 72 64 97 109 119 124 127 129 123 117 107 138 132 121 124 127 128 132 123 118 127 126 132 128 131 122 121 121 122 124 123 120
29 33 32 36 35 37 55 55 78 75 80 101 97 81 97 104 90 84 76 108 125 124 125 109 115 120 122 121 120 120 125 131 133 134 129 126 122 120 118 123 118 103 114
33 36 48 37 45 43 44 65 69 68 76 76 99 108 110 111 101 91 85 92 99 108 110 110 115 118 119 122 119 120 123 128 125 129 127 125 123 122 124 128 128 122 112
37 41 41 52 54 57 61 62 73 79 71 66 58 60 64 90 100 102 101 90 118 102 109 111 112 111 112 117 117 126 125 119 129 129 127 129 125 116 122 126 122 125 119
44 47 50 51 53 60 67 69 71 79 77 82 78 65 64 72 76 76 82 92 95 97 100 104 102 104 116 122 125 121 118 119 131 127 130 127 120 116 124 123 121 121 114
47 58 59 55 58 64 67 68 75 79 79 75 77 78 75 79 79 81 80 79 80 74 78 91 98 91 91 98 106 121 125 131 145 137 133 134 126 122 121 122 121 119 114
52 53 61 68 68 70 71 71 70 69 78 78 81 84 81 76 82 83 80 80 73 64 67 73 81 103 101 98 97 103 112 126 135 134 136 129 123 123 117 117 122 119 114
50 63 63 70 77 78 83 81 77 82 88 89 79 79 85 85 73 67 62 60 71 83 80 94 87 96 102 108 114 116 110 122 123 122 121 121 123 122 119 117 122 114 124
75 76 72 76 74 77 84 89 89 91 91 86 82 77 79 85 87 93 104 104 90 85 90 85 97 102 102 100 109 106 102 105 106 106 119 121 119 117 113 117 119 120 129